Regional Weather Roundup
Issued by NWS Newport/Morehead, NC

Home | Current Version | Previous Version | Text Only | Print | Product List | Glossary On
Versions: 1 2 3 4 5 6 7 8 9 10 11 12 13 14 15 16 17 18 19 20 21 22 23 24 25 26 27 28 29 30 31 32 33 34 35 36 37 38 39 40 41 42 43 44 45 46 47 48 49 50
000
ASUS42 KMHX 180122
RWRMHX
WEATHER ROUNDUP FOR EASTERN NORTH CAROLINA
NATIONAL WEATHER SERVICE NEWPORT/MOREHEAD CITY NC
900 PM EDT THU APR 17 2014

NOTE: "FAIR" INDICATES FEW OR NO CLOUDS BELOW 12,000 FEET
WITH NO SIGNIFICANT WEATHER AND/OR OBSTRUCTIONS TO VISIBILITY

NCZ015>017-031-032-045>047-102-103-180200-
NORTH COAST

CITY           SKY/WX    TMP DP  RH WIND       PRES   REMARKS
EDENTON        MOCLDY    46  40  81 NE9G16    30.50R
ELIZABETH CITY CLOUDY    46  40  79 NE21G26   30.50S
KITTY HAWK     CLEAR     46  42  88 N9G24     30.45S
MANTEO         PTCLDY    46  43  89 NE18G29   30.46F

$$

NCZ045>047-081-094-103-104-180200-
CENTRAL COAST

CITY           SKY/WX    TMP DP  RH WIND       PRES   REMARKS
FRISCO         CLEAR     50  47  89 NE12G22   30.42R
SWANQUARTER      N/A     48 N/A N/A NE14G24   30.41S

$$

NCZ095-097-098-100-101-180200-
SOUTHERN COAST

CITY           SKY/WX    TMP DP  RH WIND       PRES   REMARKS
BEAUFORT       CLOUDY    53  44  71 N14G22    30.44R
CEDAR ISLAND     N/A     52 N/A N/A N13G26    30.47R
JACKSONVILLE   CLOUDY    56  44  64 NE10      30.43R
NEWPORT          N/A     52  45  76 N12         N/A
PINEY ISLAND   PTCLDY    52  45  77 N16G24    30.44R
WILMINGTON     CLEAR     58  47  66 NE10      30.41R


$$

NCZ011>013-027>030-043-044-078>080-089-090>093-098-180200-
COASTAL PLAIN

CITY           SKY/WX    TMP DP  RH WIND       PRES   REMARKS
AHOSKIE        CLEAR     46  37  70 NE7       30.52R
CLINTON        CLEAR     55  49  79 CALM      30.44R
ELIZABETHTOWN  CLEAR     57  46  67 CALM      30.40S
GOLDSBORO      CLEAR     55  46  72 E13       30.44R
GREENVILLE     CLEAR     50  41  71 E7        30.47R
HAVELOCK       PTCLDY    53  41  63 NE12      30.46R
KENANSVILLE    CLEAR     55  44  65 NE7       30.45R
KINSTON        CLEAR     54  43  66 E12       30.48R
NEW BERN       MOCLDY    53  42  66 NE17G23   30.47R
RICHLANDS      CLEAR    N/A N/A N/A N14       30.45R
ROANOKE RAPIDS NOT AVBL
ROCKY MOUNT      N/A    N/A N/A N/A MISG      30.48R
WASHINGTON     CLEAR     47  41  79 NE10G17   30.49R
WHITEVILLE     CLEAR     59  46  63 CALM      30.38F

$$

AMZ130-135-150-152-154-156-158-170-250-252-270-ANZ085-086-088-633-658-670-180200-
MARINE OBSERVATIONS

STATION/POSITION TIME  TEMP    WIND        PRES    WAVE   SWELL
                       AIR SEA DIR/SP/G            HT/PER HT/PER
                 (UTC) (F)     (DEG/KT/KT) (MB)    (FT/S) (FT/S)
CHESAPEAKE LIGHT 0100   44      50/ 28/ 29 1033.3
BUOY 44014       0100   51 54   30/ 23/ 27 1031.0    9/11   7/11
DUCK             0100   46 51   20/ 26/ 29 1030.8
2E DUCK          0000      50                N/A     8/ 7   2/11
OREGON INLET     0100   47 52   10/ 14/ 23 1030.8
BUOY 44095       0100      48                N/A    10/10   3/11
HATTERAS CG      0100   52 56   20/ 11/ 20 1030.3
DIAMOND BUOY     NOT AVBL
CAPE LOOKOUT     0100   53      10/ 14/ 19 1030.3
BEAUFORT LAB     0100   53 59   20/ 14/ 18 1030.0
30 SE NEW RIVER  0100   57 63   30/ 25/ 29 1028.8    8/ 7   3/ 9
5 SE WRIGHTSVILL 0100   59 60   50/ 19/ 23 1028.9
FRYING PAN BUOY  0100   60 64   60/ 21/ 27 1027.9    9/ 7   2/15
BUOY 41001       NOT AVBL
BUOY 41002       NOT AVBL
BUOY 41004       NOT AVBL

$$



USA.gov is the U.S. government's official web portal to all federal, state and local government web resources and services.